Weather reports worldwide

Advertisment
Geneve-Cointrin, Switzerland (6700): temperature & dewpoint: 02.07.2020 07:00:00 - 08.07.2020 07:00:00 (CEST)Geneve-Cointrin, Switzerland (6700): temperature 5cm: 02.07.2020 07:00:00 - 08.07.2020 07:00:00 (CEST)Geneve-Cointrin, Switzerland (6700): wind speed & gusts: 02.07.2020 07:00:00 - 08.07.2020 07:00:00 (CEST)Geneve-Cointrin, Switzerland (6700): wind direction: 02.07.2020 07:00:00 - 08.07.2020 07:00:00 (CEST)Geneve-Cointrin, Switzerland (6700): reduced air pressure: 02.07.2020 07:00:00 - 08.07.2020 07:00:00 (CEST)Geneve-Cointrin, Switzerland (6700): visibility: 02.07.2020 07:00:00 - 08.07.2020 07:00:00 (CEST)Geneve-Cointrin, Switzerland (6700): sunshine duration: 02.07.2020 07:00:00 - 08.07.2020 07:00:00 (CEST)Geneve-Cointrin, Switzerland (6700): precipitation: 02.07.2020 07:00:00 - 08.07.2020 07:00:00 (CEST)
Date & Time tt [°C] td [°C] tt 5cm [°C] ff [km/h] ff [kn] fx [km/h] fx [kn] dd ppp [hPa] vv [km] sd [min] rr [mm]
08.07.2020 07:00:00 13,5 9,8 12,7 1 1 8 4 W 1019,5 - 33 0,0
08.07.2020 06:00:00 12,3 8,9 8,2 0 0 8 5 SW 1019,3 - 0 0,0
08.07.2020 05:00:00 12,9 8,7 8,6 3 2 5 3 NW 1019,2 - 0 0,0
08.07.2020 04:00:00 13,8 8,7 10,1 3 1 8 4 WSW 1019,0 - 0 0,0
08.07.2020 03:00:00 13,7 9,4 10,3 3 1 5 3 WSW 1019,0 - 0 0,0
08.07.2020 02:00:00 15,3 9,6 10,5 1 1 8 4 ESE 1018,9 - 0 0,0
08.07.2020 01:00:00 15,9 10,2 11,4 5 3 7 4 NW 1018,7 - 0 0,0
08.07.2020 00:00:00 17,0 9,2 12,6 6 3 11 6 ENE 1018,7 - 0 0,0
07.07.2020 23:00:00 19,0 7,9 14,6 8 4 19 10 ENE 1018,1 70 0 0,0
07.07.2020 22:00:00 20,1 8,9 16,6 4 2 11 6 NW 1017,6 - 0 0,0
07.07.2020 21:00:00 21,9 10,2 19,1 4 2 8 5 N 1016,7 - 50 0,0
07.07.2020 20:00:00 23,9 8,3 24,8 4 2 16 9 NNE 1016,2 75 60 0,0
07.07.2020 19:00:00 24,4 8,5 26,7 10 5 19 11 NNE 1016,1 - 60 0,0
07.07.2020 18:00:00 24,2 7,5 28,1 12 6 24 13 NE 1016,3 - 60 0,0
07.07.2020 17:00:00 24,1 7,0 28,9 12 7 24 13 NNE 1016,8 75 60 0,0
07.07.2020 16:00:00 24,1 5,8 29,3 13 7 23 13 NNE 1017,2 - 60 0,0
07.07.2020 15:00:00 23,2 5,7 28,5 12 7 30 16 NE 1017,4 - 60 0,0
07.07.2020 14:00:00 22,1 5,7 27,8 17 9 33 18 NE 1018,1 75 60 0,0
07.07.2020 13:00:00 21,3 7,2 26,8 21 11 40 21 ENE 1018,5 - 60 0,0
07.07.2020 12:00:00 20,1 6,8 25,2 21 12 41 22 NE 1018,9 - 60 0,0
07.07.2020 11:00:00 19,3 7,6 23,9 22 12 40 22 NNE 1019,0 75 60 0,0
07.07.2020 10:00:00 18,1 6,9 21,8 27 15 47 26 NE 1019,1 - 60 0,0
07.07.2020 09:00:00 17,5 7,0 19,9 23 12 41 22 NNE 1019,3 - 60 0,0
07.07.2020 08:00:00 16,8 6,6 17,6 26 14 44 24 NNE 1019,2 75 60 0,0
07.07.2020 07:00:00 15,5 5,8 14,5 17 9 36 19 NNE 1019,5 - 34 0,0
07.07.2020 06:00:00 14,6 5,6 11,7 11 6 31 17 NNE 1019,8 - 0 0,0
07.07.2020 05:00:00 14,8 5,6 12,4 15 8 29 16 NNE 1019,8 - 0 0,0
07.07.2020 04:00:00 14,4 4,8 11,1 11 6 20 11 NNE 1020,1 - 0 0,0
07.07.2020 03:00:00 15,1 4,9 12,6 12 7 31 17 NNE 1020,2 - 0 0,0
07.07.2020 02:00:00 14,7 5,9 11,6 8 5 24 13 NNE 1020,5 - 0 0,0
07.07.2020 01:00:00 15,6 6,0 12,2 10 5 23 12 NNE 1020,7 - 0 0,0
07.07.2020 00:00:00 17,0 6,0 14,0 12 6 31 17 NE 1020,5 - 0 0,0
06.07.2020 23:00:00 17,7 6,1 14,8 10 6 24 13 NNE 1020,2 60 0 0,0
06.07.2020 22:00:00 18,5 5,4 15,2 9 5 26 14 NNE 1019,3 - 0 0,0
06.07.2020 21:00:00 19,6 5,4 18,0 9 5 30 16 N 1018,5 - 50 0,0
06.07.2020 20:00:00 21,8 3,6 22,2 9 5 34 18 NW 1017,7 60 60 0,0
06.07.2020 19:00:00 23,2 4,8 25,1 12 7 35 19 NNW 1017,2 - 60 0,0
06.07.2020 18:00:00 24,0 6,0 27,5 13 7 36 19 NNW 1016,9 - 60 0,0
06.07.2020 17:00:00 24,5 7,0 28,7 11 6 35 19 N 1016,6 70 60 0,0
06.07.2020 16:00:00 25,9 7,4 29,7 14 8 32 17 NW 1016,0 - 60 0,0
06.07.2020 15:00:00 25,2 8,8 29,9 13 7 34 19 WNW 1016,1 - 60 0,0
06.07.2020 14:00:00 24,3 10,3 27,4 13 7 31 17 WNW 1016,3 60 50 0,0
06.07.2020 13:00:00 25,2 12,2 28,1 17 9 34 18 WNW 1016,0 - 36 0,0
06.07.2020 12:00:00 23,4 13,9 24,5 11 6 23 12 WNW 1016,2 - 7 0,0
06.07.2020 11:00:00 24,0 13,8 28,7 8 5 23 13 W 1016,1 50 52 0,0
06.07.2020 10:00:00 24,5 13,5 28,9 7 4 16 9 WSW 1016,3 - 60 0,0
06.07.2020 09:00:00 22,4 14,5 26,7 6 3 14 7 SSW 1016,9 - 60 0,0
06.07.2020 08:00:00 20,4 15,4 21,9 5 3 8 5 WSW 1017,1 60 43 0,0
06.07.2020 07:00:00 17,4 14,3 15,9 4 2 6 3 SW 1017,5 - 0 0,0
06.07.2020 06:00:00 15,7 13,7 12,5 3 2 8 4 NW 1017,7 - 0 0,0
06.07.2020 05:00:00 16,0 13,5 12,5 3 1 6 3 WSW 1017,5 - 0 0,0
06.07.2020 04:00:00 16,0 13,6 12,3 1 1 10 5 S 1018,0 - 0 0,0
06.07.2020 03:00:00 17,2 13,5 13,1 1 1 10 5 NNW 1018,1 - 0 0,0
06.07.2020 02:00:00 17,7 13,6 13,3 3 1 7 4 NNW 1018,3 - 0 0,0
06.07.2020 01:00:00 19,4 13,4 13,7 2 1 12 7 ENE 1018,0 - 0 0,0
06.07.2020 00:00:00 19,4 13,0 14,6 3 2 7 4 SSE 1017,9 - 0 0,0
05.07.2020 23:00:00 20,8 13,6 15,3 2 1 7 4 W 1017,5 70 0 0,0
05.07.2020 22:00:00 22,8 12,9 17,3 3 2 8 4 W 1016,7 - 0 0,0
05.07.2020 21:00:00 25,5 13,1 22,0 3 1 16 9 NW 1016,1 - 50 0,0
05.07.2020 20:00:00 27,5 14,4 27,8 5 3 18 10 NNW 1015,7 70 60 0,0
05.07.2020 19:00:00 28,6 14,0 30,5 12 6 24 13 N 1015,8 - 60 0,0
05.07.2020 18:00:00 29,1 15,3 32,0 14 7 24 13 N 1015,8 - 59 0,0
05.07.2020 17:00:00 28,8 16,2 33,7 8 4 18 10 N 1016,1 70 38 0,0
05.07.2020 16:00:00 28,1 15,4 31,6 3 2 16 9 SW 1016,4 - 52 0,0
05.07.2020 15:00:00 27,7 14,9 34,2 7 4 18 10 N 1017,0 - 60 0,0
05.07.2020 14:00:00 27,2 14,3 33,4 6 3 16 9 S 1017,7 70 60 0,0
05.07.2020 13:00:00 26,7 14,1 32,9 7 4 17 9 WSW 1018,3 - 60 0,0
05.07.2020 12:00:00 24,8 11,6 30,8 8 4 17 9 WSW 1019,0 - 60 0,0
05.07.2020 11:00:00 23,6 11,7 29,5 3 1 9 5 SSW 1019,7 70 60 0,0
05.07.2020 10:00:00 22,0 11,5 28,1 4 2 10 5 NNE 1020,4 - 60 0,0
05.07.2020 09:00:00 20,0 12,2 25,4 3 2 6 4 SW 1020,9 - 60 0,0
05.07.2020 08:00:00 18,3 11,5 20,7 4 2 7 4 W 1021,2 70 60 0,0
05.07.2020 07:00:00 15,2 12,0 15,4 1 1 5 3 NNW 1021,9 - 36 0,0
05.07.2020 06:00:00 14,1 11,1 11,4 2 1 7 4 NW 1022,1 - 0 0,0
05.07.2020 05:00:00 14,9 11,3 10,8 0 0 6 4 E 1021,9 - 0 0,0
05.07.2020 04:00:00 14,6 11,5 11,1 3 2 8 4 WNW 1021,9 - 0 0,0
05.07.2020 03:00:00 16,2 11,5 12,5 4 2 6 4 W 1021,9 - 0 0,0
05.07.2020 02:00:00 15,8 11,3 12,2 3 1 8 4 WNW 1022,0 - 0 0,0
05.07.2020 01:00:00 17,0 11,4 12,7 3 2 4 2 W 1021,5 - 0 0,0
05.07.2020 00:00:00 19,0 11,5 13,7 1 1 5 3 W 1021,0 - 0 0,0
04.07.2020 23:00:00 19,2 11,6 15,6 4 2 7 4 W 1020,9 70 0 0,0
04.07.2020 22:00:00 20,7 11,0 16,1 2 1 7 4 N 1020,0 - 0 0,0
04.07.2020 21:00:00 22,8 10,5 19,9 4 2 10 5 NW 1019,4 - 0 0,0
04.07.2020 20:00:00 24,5 10,5 23,8 5 3 20 11 NNW 1018,6 70 52 0,0
04.07.2020 19:00:00 26,3 11,6 28,1 8 4 15 8 WNW 1018,1 - 60 0,0
04.07.2020 18:00:00 26,0 10,8 29,6 9 5 16 9 SSW 1018,3 - 60 0,0
04.07.2020 17:00:00 26,5 11,3 30,4 13 7 25 14 WSW 1018,6 70 60 0,0
04.07.2020 16:00:00 25,1 9,9 30,1 8 4 22 12 ESE 1018,7 - 60 0,0
04.07.2020 15:00:00 25,0 10,5 29,2 12 7 22 12 E 1019,1 - 60 0,0
04.07.2020 14:00:00 23,4 9,8 29,5 10 6 20 11 E 1019,8 70 60 0,0
04.07.2020 13:00:00 24,2 10,2 28,5 10 5 17 9 E 1020,2 - 60 0,0
04.07.2020 12:00:00 21,9 8,1 28,4 10 5 19 10 NE 1020,8 - 60 0,0
04.07.2020 11:00:00 21,5 10,3 26,6 9 5 16 9 NNE 1020,9 75 60 0,0
04.07.2020 10:00:00 19,9 11,4 24,5 10 5 18 10 ENE 1021,1 - 60 0,0
04.07.2020 09:00:00 19,2 12,6 23,8 5 3 11 6 NE 1021,3 - 60 0,0
04.07.2020 08:00:00 16,9 12,3 19,9 2 1 7 4 SW 1021,4 75 60 0,0
04.07.2020 07:00:00 14,2 11,4 14,1 5 3 7 4 WSW 1021,6 - 22 0,0
04.07.2020 06:00:00 13,6 11,2 11,4 6 3 10 5 W 1021,7 - 0 0,0
04.07.2020 05:00:00 14,8 11,3 11,7 2 1 5 3 SSW 1021,3 - 0 0,0
04.07.2020 04:00:00 15,0 11,1 13,1 2 1 6 3 ENE 1021,2 - 0 0,0
04.07.2020 03:00:00 13,9 10,7 10,2 3 2 5 3 NW 1021,3 - 0 0,0
04.07.2020 02:00:00 15,0 10,5 10,8 1 1 10 5 WNW 1021,1 - 0 0,0
04.07.2020 01:00:00 15,9 10,1 11,1 3 2 10 5 N 1020,9 - 0 0,0
04.07.2020 00:00:00 16,3 10,2 12,0 4 2 14 8 NNW 1020,5 - 0 0,0
03.07.2020 23:00:00 16,3 11,3 12,9 6 3 12 7 N 1020,3 40 0 0,0
03.07.2020 22:00:00 17,5 11,7 14,1 5 3 12 6 NNW 1019,7 - 0 0,0
03.07.2020 21:00:00 19,0 11,5 16,8 6 3 22 12 N 1019,1 - 4 0,0
03.07.2020 20:00:00 20,9 10,5 21,2 13 7 24 13 NE 1018,2 45 59 0,0
03.07.2020 19:00:00 21,6 10,8 23,1 16 8 29 15 NNE 1017,8 - 52 0,0
03.07.2020 18:00:00 20,9 9,9 21,4 15 8 31 17 NE 1018,4 - 0 0,0
03.07.2020 17:00:00 21,3 10,2 22,9 19 10 30 16 NE 1018,2 45 6 0,0
03.07.2020 16:00:00 21,7 10,2 24,4 18 10 32 18 NE 1018,2 - 9 0,0
03.07.2020 15:00:00 21,4 9,1 24,4 18 10 38 21 NE 1018,3 - 26 0,0
03.07.2020 14:00:00 21,4 10,7 26,5 20 11 33 18 NNE 1018,7 45 52 0,0
03.07.2020 13:00:00 21,0 10,4 26,3 19 10 31 17 ENE 1019,1 - 52 0,0
03.07.2020 12:00:00 19,7 10,8 23,1 18 10 29 16 NE 1019,3 - 1 0,0
03.07.2020 11:00:00 18,3 11,3 20,2 16 9 30 16 NE 1019,2 40 5 0,0
03.07.2020 10:00:00 19,5 11,3 22,7 16 9 27 15 ENE 1018,7 - 54 0,0
03.07.2020 09:00:00 17,5 12,1 19,6 13 7 19 11 NE 1019,1 - 8 0,0
03.07.2020 08:00:00 16,8 11,4 16,6 6 4 15 8 NNE 1019,1 50 0 0,0
03.07.2020 07:00:00 16,8 11,5 15,9 11 6 17 9 ENE 1018,8 - 0 0,0
03.07.2020 06:00:00 17,1 9,6 15,4 4 2 18 10 NE 1018,3 - 0 0,0
03.07.2020 05:00:00 17,5 9,5 16,3 6 3 23 12 N 1017,8 - 0 0,0
03.07.2020 04:00:00 17,9 9,5 16,9 8 4 27 15 NNW 1017,9 - 0 0,0
03.07.2020 03:00:00 18,4 9,8 17,0 4 2 12 6 NNW 1017,6 - 0 0,0
03.07.2020 02:00:00 18,4 10,8 16,8 2 1 6 3 N 1017,6 - 0 0,0
03.07.2020 01:00:00 19,0 10,3 17,2 5 3 11 6 WNW 1017,1 - 0 0,0
03.07.2020 00:00:00 19,1 10,9 17,8 5 3 14 8 N 1016,8 - 0 0,0
02.07.2020 23:00:00 20,5 10,3 18,3 5 3 12 6 NNE 1016,1 50 0 0,0
02.07.2020 22:00:00 21,0 9,7 19,9 9 5 25 13 W 1015,6 - 0 0,0
02.07.2020 21:00:00 21,5 11,4 20,4 10 6 22 12 WNW 1015,0 - 0 0,0
02.07.2020 20:00:00 22,4 12,0 21,6 11 6 24 13 WNW 1014,3 50 0 0,0
02.07.2020 19:00:00 23,5 12,2 23,1 12 6 26 14 WNW 1013,7 - 33 0,0
02.07.2020 18:00:00 24,6 12,2 28,4 5 3 22 12 WSW 1012,8 - 47 0,0
02.07.2020 17:00:00 25,4 12,4 30,1 13 7 27 15 W 1012,5 60 43 0,0
02.07.2020 16:00:00 26,3 12,3 31,1 15 8 30 16 W 1012,4 - 34 0,0
02.07.2020 15:00:00 25,9 13,5 28,6 14 8 31 17 WSW 1012,5 - 15 0,0
02.07.2020 14:00:00 25,0 15,4 26,2 17 9 35 19 SW 1012,8 70 15 0,0
02.07.2020 13:00:00 25,3 15,8 30,1 16 9 33 18 SW 1012,8 - 35 0,0
02.07.2020 12:00:00 25,7 15,8 30,1 18 10 29 16 SSW 1012,7 - 52 0,0
02.07.2020 11:00:00 24,3 15,7 28,9 11 6 23 12 SSW 1013,1 70 59 0,0
02.07.2020 10:00:00 21,6 16,6 25,8 10 6 18 10 SW 1013,7 - 17 0,0
02.07.2020 09:00:00 21,0 16,8 23,7 9 5 15 8 SSW 1013,8 - 41 0,0
02.07.2020 08:00:00 19,3 16,5 20,8 3 2 9 5 E 1014,0 70 54 0,0
02.07.2020 07:00:00 18,0 16,9 17,5 2 1 10 5 WNW 1014,4 - 4 0,0

tt = temperature
td = dewpoint
tt 5cm = temperature 5cm
ff = wind speed
fx = gusts
dd = wind direction
ppp = reduced air pressure
vv = visibility
sd = sunshine duration
rr = precipitation

Next stations